Regional Weather Roundup
Issued by NWS

Home | Current Version | Previous Version | Text Only | Print | Product List | Glossary On
Versions: 1 2 3 4 5 6 7 8 9 10 11 12 13 14 15 16 17 18 19 20 21 22 23 24 25 26 27 28 29 30 31 32 33 34 35 36 37 38 39 40 41 42 43 44 45 46 47 48 49 50
000
ASUS42 KFFC 290010
RWRGA
WEATHER ROUNDUP FOR GEORGIA
NATIONAL WEATHER SERVICE PEACHTREE CITY GA
800 PM EDT FRI AUG 28 2015

NOTE: "FAIR" INDICATES FEW OR NO CLOUDS BELOW 12,000 FEET WITH NO
SIGNIFICANT WEATHER AND/OR OBSTRUCTIONS TO VISIBILITY.

* = USE WITH CAUTION. THE STATIONS MARKED WITH AN ASTERISK MAY NOT
REPORT WEATHER SUCH AS PRECIPITATION, FOG, OR THUNDER AND ARE NOT
QUALITY CONTROLLED BY NWS.

THE REMARK "TC" DENOTES TEMPERATURE READING IN DEGREES CELSIUS.

GAZ001>058-290100-
NORTH GEORGIA

CITY           SKY/WX    TMP DP  RH WIND       PRES   REMARKS
ATLANTA        CLOUDY    79  66  64 E8        30.11S
6HR MIN TEMP:  78; 6HR MAX TEMP:  83;

ATHENS         CLOUDY    76  69  79 E3        30.11S
6HR MIN TEMP:  76; 6HR MAX TEMP:  85;

CHAMBLEE       MOCLDY    78  68  71 SE5       30.12R
6HR MIN TEMP:  78; 6HR MAX TEMP:  83;

PEACHTREE CITY CLOUDY    77  69  76 E6        30.11R
6HR MIN TEMP:  77; 6HR MAX TEMP:  83;

ROME           CLEAR     80  67  64 CALM      30.07S
6HR MIN TEMP:  80; 6HR MAX TEMP:  85;

WEST ATLANTA   CLOUDY    80  66  62 E6        30.10R
6HR MIN TEMP:  79; 6HR MAX TEMP:  84;

GAINESVILLE    MOCLDY    77  66  68 E5        30.15R
6HR MIN TEMP:  77; 6HR MAX TEMP:  82;

CARTERSVILLE   PTCLDY    80  66  62 CALM      30.09S
6HR MIN TEMP:  80; 6HR MAX TEMP:  85;



CITY           SKY/WX    TMP DP  RH WIND       PRES   REMARKS
DALTON*        CLEAR     79  68  69 S3        30.09S
LAWRENCEVILLE* CLEAR     77  63  61 CALM      30.13R
MARIETTA       MOCLDY    79  66  66 SE12      30.11R
KENNESAW*      CLEAR     79  64  61 SE12      30.12R
BLAIRSVILLE*     N/A     74  41  30 S3        30.16S
$$

GAZ059>098-102>109-290100-
CENTRAL GEORGIA

CITY           SKY/WX    TMP DP  RH WIND       PRES   REMARKS
AUGUSTA-BUSH   MOCLDY    75  72  90 CALM      30.09R
6HR MIN TEMP:  75; 6HR MAX TEMP:  88;

AUGUSTA-DANIEL MOCLDY    82  67  60 SE3       30.11R
6HR MIN TEMP:  82; 6HR MAX TEMP:  88;

COLUMBUS       CLOUDY    75  73  93 SE6       30.06R
6HR MIN TEMP:  73; 6HR MAX TEMP:  88; 6HR PCP:  0.20;

MACON          CLOUDY    77  71  82 E5        30.08R
6HR MIN TEMP:  77; 6HR MAX TEMP:  87;

ROBINS AFB     CLOUDY    77  72  83 NE1       30.08R


CITY           SKY/WX    TMP DP  RH WIND       PRES   REMARKS
LAGRANGE*      CLOUDY    81  75  83 E3        30.09R
SYLVANIA*      CLOUDY    79  77  95 CALM      30.10R
MILLEDGEVILLE* CLOUDY    77  72  83 CALM      30.10R
$$

GAZ099>101-110>166-290100-
SOUTH GEORGIA

CITY           SKY/WX    TMP DP  RH WIND       PRES   REMARKS
SAVANNAH       CLOUDY    74  70  87 E10       30.09R
6HR MIN TEMP:  74; 6HR MAX TEMP:  86; 6HR PCP:  0.03;

VALDOSTA       CLOUDY    73  71  93 CALM      30.06F
6HR MIN TEMP:  71; 6HR MAX TEMP:  90; 6HR PCP:  0.19;

ALMA           CLOUDY    78  73  84 CALM      30.08R
6HR MIN TEMP:  69; 6HR MAX TEMP:  87; 6HR PCP:  1.78;

ST SIMONS      CLOUDY    81  73  76 NE8       30.07R
6HR MIN TEMP:  72; 6HR MAX TEMP:  81; 6HR PCP:  0.42;

FT STEWART     CLOUDY    76  69  79 CALM      30.06R
ALBANY         CLOUDY    75  69  81 NW15      30.11R
HUNTER AFB     CLOUDY    75  74  97 N3        30.06R
MOODY AFB      CLOUDY    72  70  92 SE3       30.06S
BRUNSWICK      CLOUDY    77  75  94 NE3       30.08R


CITY           SKY/WX    TMP DP  RH WIND       PRES   REMARKS
BAINBRIDGE*    PTCLDY    79  68  69 E12G17    30.03R
MOULTRIE*      MOCLDY    73  70  88 CALM      30.08R
VIDALIA*       CLOUDY    79  72  78 CALM      30.09R
WAYCROSS*      CLOUDY    81  78  90 E5        30.07S
DOUGLAS*       CLOUDY    77  75  94 CALM      30.10R
$$


USA.gov is the U.S. government's official web portal to all federal, state and local government web resources and services.